sat.trackr.live / text

‹ back to catalog

STARLINK-34404

NORAD 64442 · 2025-130E

PAYLOAD ACTIVE UNKNOWN

§ Identity

Operator
Country
US
Launch date
2025-06-18
Launch site
AFETR
Launch vehicle
Mass (kg)
RCS (m²)

Purposes: comms

External: N2YO · Heavens-Above · Gunter

§ Orbital elements

Epoch: 2026-05-25T03:36:11.365056Z

Period
93.85 min
Inclination
53.1592°
Eccentricity
0.0001017
Mean motion
15.34401378 rev/d
Perigee alt
462.0 km
Apogee alt
463.4 km
Semi-major
6,840.8 km
B*
5.6665e-4
RAAN
93.0935°
Arg perigee
78.6517°
Mean anomaly
281.4600°
Rev number
5,241

§ Raw data

STARLINK-344041 64442U 25130E   26145.15013154  .00018818  00000+0  56665-3 0  99952 64442  53.1592  93.0935 0001017  78.6517 281.4600 15.34401378 52418

JSON: /api/v1/satellites/64442 · /tle

For live sub-satellite position, see the globe view (requires WebGL).

§ Visibility from observer

Set your observer location to see the next 7 days of passes ≥ 10°. The values pass through the URL so the page stays shareable.

No JS? Fill the form by hand. The geolocation button needs JavaScript.